Torna al catalogo

TIROS 5

AttivoMeteoLEO
NORAD 309·PAYLOAD·🇺🇸 United States

Lanciato Jun 19, 1962 da Cape Canaveral Space Force Station

Loading…

Prossimi Passaggi (prossime 24 ore)

TLE

AggiornatoSource: Space-Track

Epoca: Sep 7, 2026, 01:45 UTC

1 00309U 62025A   26250.07327108  .00000124  00000-0  54463-4 0  9993
2 00309  58.0888 278.7023 0185056  20.8713 339.9745 14.60718022393798

Traccia TIROS 5 in tempo reale con AllMySat

Download on the App Store